TimeCST,TemperatureF,Dew PointF,Humidity,Sea Level PressureIn,VisibilityMPH,Wind Direction,Wind SpeedMPH,Gust SpeedMPH,PrecipitationIn,Events,Conditions,WindDirDegrees,DateUTC
12:55 AM,-9999,-9999,N/A,30.02,-9999.0,North,-9999.0,-,N/A,,Unknown,0,2013-02-11 06:55:00
1:55 AM,-9999,-9999,N/A,30.01,-9999.0,North,-9999.0,-,N/A,,Unknown,0,2013-02-11 07:55:00
3:55 AM,-9999,-9999,N/A,30.01,-9999.0,North,-9999.0,-,N/A,,Unknown,0,2013-02-11 09:55:00
5:55 AM,-9999,-9999,N/A,30.04,-9999.0,North,-9999.0,-,N/A,,Unknown,0,2013-02-11 11:55:00
6:12 AM,69.8,66.2,88,30.03,0.5,Calm,Calm,-,N/A,Fog,Fog,0,2013-02-11 12:12:00
6:55 AM,69.3,64.4,84,30.04,0.1,Calm,Calm,-,N/A,,Haze,0,2013-02-11 12:55:00
7:55 AM,68.9,65.3,88,30.06,0.1,Calm,Calm,-,N/A,Fog,Fog,0,2013-02-11 13:55:00
8:51 AM,66.2,62.6,88,30.08,2.5,North,11.5,-,N/A,,Overcast,350,2013-02-11 14:51:00
8:55 AM,66.7,62.6,86,30.09,3.0,North,11.5,-,N/A,,Overcast,350,2013-02-11 14:55:00
9:31 AM,62.6,55.4,77,30.09,7.0,North,11.5,-,N/A,Rain,Rain,350,2013-02-11 15:31:00
9:55 AM,63.1,58.6,85,30.08,2.5,North,11.5,-,N/A,Rain,Rain,350,2013-02-11 15:55:00
10:02 AM,62.6,59.0,88,30.09,3.0,North,11.5,-,N/A,Rain,Rain,350,2013-02-11 16:02:00
10:55 AM,61.9,57.4,85,30.11,3.0,North,11.5,-,N/A,Rain,Rain,350,2013-02-11 16:55:00
11:33 AM,60.8,57.2,88,30.10,1.0,NNE,11.5,17.3,N/A,Rain,Rain,20,2013-02-11 17:33:00
12:23 PM,62.6,59.0,88,30.09,7.0,NNE,8.1,16.1,N/A,Rain,Light Rain,20,2013-02-11 18:23:00
12:55 PM,64.0,55.6,74,30.07,7.0,East,6.9,13.8,N/A,,Overcast,90,2013-02-11 18:55:00
1:55 PM,65.7,52.2,62,30.06,7.0,East,9.2,-,N/A,,Overcast,100,2013-02-11 19:55:00
2:55 PM,63.9,52.2,66,30.04,7.0,East,9.2,-,N/A,Rain,Light Rain,80,2013-02-11 20:55:00
3:36 PM,64.4,51.8,64,30.03,8.0,East,8.1,-,N/A,,Overcast,90,2013-02-11 21:36:00
4:55 PM,63.9,52.2,66,30.04,8.0,ESE,5.8,-,N/A,,Overcast,110,2013-02-11 22:55:00
5:55 PM,58.3,56.5,94,30.06,4.0,East,9.2,-,N/A,Rain,Light Rain,90,2013-02-11 23:55:00
6:55 PM,58.6,56.7,93,30.05,7.0,NE,5.8,-,N/A,Rain,Light Rain,40,2013-02-12 00:55:00
7:55 PM,57.9,55.9,93,30.06,7.0,NE,12.7,-,N/A,Rain,Light Rain,50,2013-02-12 01:55:00
8:55 PM,57.2,55.6,94,30.06,7.0,NE,8.1,-,N/A,,Overcast,50,2013-02-12 02:55:00
9:55 PM,56.7,54.9,94,30.05,7.0,ENE,5.8,-,N/A,,Overcast,60,2013-02-12 03:55:00
10:55 PM,57.4,54.9,91,30.04,7.0,NE,5.8,-,N/A,,Overcast,40,2013-02-12 04:55:00